Simultaneous Nadir Overpasses (SNOs) Predictions

Prediction of SNOs between AURA and NPP Satellite Orbit:

Table of predicted SNOs for the next 14.0 days since TLE Epoch: 7/31/2021
Index Date (AURA) Time (AURA) Lat,Lon (AURA) SZA (AURA ) Date (NPP) Time (NPP) Lat,Lon (NPP) SZA (NPP ) Distance(km) Time Diff (sec)
1 08/02/2021 10:35:28 -79.26, 96.30 104.31 08/02/2021 10:34:24 -79.26, 96.39 104.29 1.94 64
2 08/02/2021 11:24:47 79.52, -94.30 75.31 08/02/2021 11:25:01 79.52, -94.28 75.30 0.49 14
3 08/05/2021 02:51:54 -79.36,-147.13 103.78 08/05/2021 02:51:18 -79.36,-147.07 103.77 1.26 36
4 08/05/2021 03:41:14 79.58, 22.01 75.91 08/05/2021 03:41:56 79.58, 22.00 75.88 0.10 42
5 08/07/2021 19:08:19 -79.46, -30.59 103.21 08/07/2021 19:08:11 -79.46, -30.53 103.21 1.20 8
6 08/07/2021 19:57:39 79.67, 138.56 76.49 08/07/2021 19:58:49 79.67, 138.56 76.44 0.21 70
7 08/10/2021 10:35:25 79.26, -83.64 77.82 08/10/2021 10:34:28 79.27, -83.59 77.85 1.04 57
8 08/10/2021 11:24:45 -79.55, 85.93 102.60 08/10/2021 11:25:05 -79.55, 86.01 102.63 1.72 20
9 08/13/2021 02:51:50 79.39, 33.07 78.40 08/13/2021 02:51:21 79.40, 33.17 78.40 2.14 29



Historial Predications of SNOs between AURA and NPP
